EW1210 Weather Reports


Display with metric or nautical units.
time (UTC)temp
F
wind
direction
speed
MPH
gust
MPH
rain 1hr
in
rain 24hr
in
rain mn
in
humidity
%
barometer
mb
20260506171540 59 162 2.0 13.0 0.00 0.00 0.00 84 1011.1
20260506170034 59 257 3.0 14.0 0.00 0.00 0.00 85 1011.2
20260506164543 59 278 4.0 13.0 0.00 0.00 0.00 84 1011.4
20260506163033 59 297 5.0 17.0 0.00 0.00 0.00 84 1011.4
20260506161533 60 204 3.0 11.0 0.00 0.00 0.00 83 1011.5
20260506160029 60 212 1.0 13.0 0.00 0.00 0.00 83 1011.9
20260506154527 61 222 6.0 17.0 0.00 0.00 0.00 81 1012.0
20260506153026 61 234 5.0 11.0 0.00 0.00 0.00 81 1011.9
20260506151525 62 232 2.0 9.0 0.00 0.00 0.00 81 1012.2
20260506150023 63 164 2.0 8.0 0.00 0.00 0.00 79 1012.2
20260506144525 63 296 1.0 12.0 0.00 0.00 0.00 80 1012.2
20260506143031 62 291 4.0 11.0 0.00 0.00 0.00 80 1012.4
20260506141520 62 212 3.0 9.0 0.00 0.00 0.00 80 1012.7
20260506140019 61 257 5.0 15.0 0.00 0.00 0.00 82 1012.5
20260506134519 61 225 2.0 5.0 0.00 0.00 0.00 82 1012.4
20260506133017 61 210 3.0 8.0 0.00 0.00 0.00 81 1012.2
20260506131518 61 207 3.0 7.0 0.00 0.00 0.00 82 1012.1
20260506130016 62 243 4.0 12.0 0.00 0.00 0.00 81 1012.5
20260506124512 61 203 3.0 9.0 0.00 0.00 0.00 83 1012.6
20260506123010 60 282 4.0 8.0 0.00 0.00 0.00 84 1012.8
20260506121508 59 254 3.0 8.0 0.00 0.00 0.00 85 1012.7
20260506120006 59 203 4.0 7.0 0.00 0.00 0.00 85 1012.8
20260506114505 59 215 2.0 7.0 0.00 0.00 0.00 86 1012.9
20260506113008 58 296 1.0 8.0 0.00 0.00 0.00 87 1012.7
20260506111504 58 284 1.0 5.0 0.00 0.00 0.00 87 1012.7
20260506110003 57 245 1.0 10.0 0.00 0.00 0.00 88 1012.8
20260506104501 0 0.0 0.0 0.00 0.00 0.00 1012.8
20260506103057 0 0.0 0.0 0.00 0.00 0.00 1012.8
20260506101553 0 0.0 0.0 0.00 0.00 0.00 1012.7
20260506100048 0 0.0 0.0 0.00 0.00 0.00 1012.6
20260506094547 0 0.0 0.0 0.00 0.00 0.00 1012.4
20260506093046 0 0.0 0.0 0.00 0.00 0.00 1012.6
20260506091535 56 272 2.0 8.0 0.00 0.00 0.00 87 1012.6
20260506090033 57 212 1.0 6.0 0.00 0.00 0.00 87 1012.9
20260506084533 57 210 3.0 9.0 0.00 0.00 0.00 87 1012.9
20260506083034 57 156 3.0 11.0 0.00 0.00 0.00 87 1012.9
20260506081529 57 228 1.0 5.0 0.00 0.00 0.00 87 1012.9
20260506073025 57 205 3.0 10.0 0.00 0.00 0.00 86 1013.1
20260506071525 58 207 5.0 11.0 0.00 0.00 0.00 86 1013.0
20260506061524 58 274 2.0 7.0 0.00 0.00 0.00 85 1013.0
20260506044503 58 291 3.0 11.0 0.00 0.00 0.00 83 1013.6
20260506043006 58 239 3.0 7.0 0.00 0.00 0.00 83 1013.6
20260506041502 58 34 4.0 10.0 0.00 0.00 0.00 83 1013.6
20260506040100 58 253 3.0 14.0 0.00 0.00 0.00 83 1013.5
20260506034558 58 169 4.0 10.0 0.00 0.00 0.00 83 1013.3
20260506033056 58 221 6.0 15.0 0.00 0.00 0.00 83 1013.4
20260506031602 58 228 4.0 11.0 0.00 0.00 0.00 82 1013.3
20260506030112 58 250 2.0 9.0 0.00 0.00 0.00 81 1013.3
20260506024555 59 260 4.0 12.0 0.00 0.00 0.00 80 1013.3
20260506023053 59 293 3.0 11.0 0.00 0.00 0.00 80 1013.1
20260506021553 59 218 4.0 9.0 0.00 0.00 0.00 80 1013.0
20260506020053 59 242 3.0 8.0 0.00 0.00 0.00 79 1013.0
20260506014559 59 259 3.0 11.0 0.00 0.00 0.00 79 1012.8
20260506013052 59 243 3.0 11.0 0.00 0.00 0.00 79 1012.7
20260506011557 59 300 4.0 10.0 0.00 0.00 0.00 79 1012.6
20260506010055 59 304 1.0 9.0 0.00 0.00 0.00 79 1012.5
20260506004623 59 291 3.0 10.0 0.00 0.00 0.00 78 1012.3
20260506003051 60 333 3.0 13.0 0.00 0.00 0.00 77 1012.0
20260506001550 60 302 2.0 13.0 0.00 0.00 0.00 77 1011.4
20260506000050 59 224 5.0 11.0 0.00 0.00 0.00 78 1011.2
20260505234610 59 290 3.0 6.0 0.00 0.00 0.00 78 1011.0
20260505233048 60 232 3.0 9.0 0.00 0.00 0.00 77 1010.8
20260505231550 61 219 5.0 13.0 0.00 0.00 0.00 75 1010.8
20260505230051 61 195 3.0 9.0 0.00 0.00 0.00 75 1011.2
20260505224548 61 262 3.0 14.0 0.00 0.00 0.00 74 1011.1
20260505223059 61 150 2.0 10.0 0.00 0.00 0.00 75 1010.9
20260505221558 62 276 6.0 12.0 0.00 0.00 0.00 73 1010.8
20260505220100 63 250 4.0 10.0 0.00 0.00 0.00 72 1010.6
20260505214603 63 187 4.0 9.0 0.00 0.00 0.00 72 1010.5
20260505213048 64 183 2.0 10.0 0.00 0.00 0.00 71 1010.7
20260505211547 64 262 4.0 12.0 0.00 0.00 0.00 71 1010.6
20260505210046 65 204 6.0 13.0 0.00 0.00 0.00 68 1010.5
20260505204544 66 228 3.0 11.0 0.00 0.00 0.00 68 1010.4
20260505203044 66 246 4.0 10.0 0.00 0.00 0.00 68 1010.4
20260505201542 65 266 3.0 8.0 0.00 0.00 0.00 70 1010.5
20260505200045 65 202 5.0 11.0 0.00 0.00 0.00 70 1010.7
20260505194538 64 215 4.0 10.0 0.00 0.00 0.00 72 1010.9
20260505193035 65 259 5.0 10.0 0.00 0.00 0.00 71 1011.2
20260505191534 65 323 3.0 9.0 0.00 0.00 0.00 72 1011.2
20260505190037 66 283 4.0 9.0 0.00 0.00 0.00 72 1011.4
20260505184531 65 238 5.0 12.0 0.00 0.00 0.00 72 1011.4
20260505183042 65 217 6.0 12.0 0.00 0.00 0.00 72 1011.5
20260505181529 65 198 5.0 11.0 0.00 0.00 0.00 72 1011.5
20260505180027 66 214 3.0 8.0 0.00 0.00 0.00 71 1011.7
20260505174525 65 189 4.0 10.0 0.00 0.00 0.00 72 1011.8
20260505173024 66 195 3.0 7.0 0.00 0.00 0.00 71 1011.9